User: anonymous   Login
Location: Unspecified
(0.0000°N, 0.0000°E)
Time: 14:24:46
(UTC+00:00)
Language:

PROBA 2 - Orbit

View from above orbital plane
View from above orbital plane
View from above satellite
View from above satellite

Ground track
Ground track

The orbit data is extracted from the following two-line orbital elements,

1 36037U 09059B   14295.45600346  .00000396  00000-0  10738-3 0  5515
2 36037 098.2805 126.6268 0014422 080.0074 338.4410 14.52665988263475
Epoch (UTC): 22 October 2014 10:56:38
Eccentricity: 0.0014422
inclination: 98.2805°
perigee height: 707 km
apogee height: 727 km
right ascension of ascending node: 126.6268°
argument of perigee: 80.0074°
revolutions per day: 14.52665988
mean anomaly at epoch: 338.4410°
orbit number at epoch: 26347

The dashed part of the orbit path shows where the satellite is in the earth's shadow,  

DLR